Voltar ao catálogo

STARLINK-4406

AtivoComunicaçõesPO
NORAD 53667·PAYLOAD·🇺🇸 United States

Lançado Aug 31, 2022 de Vandenberg Space Force Base

Loading…

Próximas Passagens (próximas 24 horas)

TLE

AtualizadoSource: CelesTrak SupGP

Época: Sep 15, 2026, 02:44 UTC

1 53667C 22105V   26258.11437500  .00242340  00000+0  25167-2 0  2586
2 53667  97.5976 145.9671 0001690  98.0470 324.7503 15.64515510    17

Acompanhe STARLINK-4406 em tempo real com AllMySat

Download on the App Store